Location: Baumgarten
(49.0970°N, 12.7493°E)
Time: 17:16:28
(UTC+00:00)

ATLAS 2AS CENTAUR R/B - Pass Details

Date: 05 July 2020
Orbit: 930 x 1282 km, 63.7° (Epoch: 19 July)

Event Time Altitude Azimuth Distance (km) Brightness Sun altitude
Rises 22:32:22 0° 317° (NW) 4,175 6.8 -17.6°
Reaches altitude 10° 22:35:17 10° 313° (NW) 3,166 5.9 -17.7°
Maximum altitude 22:42:36 54° 240° (WSW) 1,369 3.1 -17.9°
Enters shadow 22:46:18 28° 176° (S) 1,955 3.5 -18.0°
